Skip Page Navigation
NASA JPL Caltech
NASA Logo - Jet Propulsion Laboratory + View the NASA Portal
+ Near-Earth Object (NEO) Program
Search JPL
JPL Home Earth Solar System Stars & Galaxies Technology
JPL Solar System Dynamics
BODIES ORBITS EPHEMERIDES TOOLS PHYSICAL DATA DISCOVERY FAQ SITE MAP
JPL Small-Body Database Browser
Search: [ help ]  
5898 (1985 KE)
Classification: Main-belt Asteroid          SPK-ID: 2005898
Ephemeris | Orbit Diagram | Orbital Elements | Physical Parameters | Discovery Circumstances ]

[ show orbit diagram ]
Orbital Elements at Epoch 2456800.5 (2014-May-23.0) TDB
Reference: JPL 9 (heliocentric ecliptic J2000)
 Element Value Uncertainty (1-sigma)   Units 
e .135745866138198 5.2135e-08  
a 2.921289418326936 2.5436e-08 AU
q 2.524736455995793 1.5267e-07 AU
i 3.06036246487238 5.9025e-06 deg
node 228.5635197054848 0.00010658 deg
peri 164.5980919413193 0.00010932 deg
M 133.9631068640339 2.3464e-05 deg
tp 2456121.854434539120
(2012-Jul-13.35443454)
0.00011723 JED
period 1823.729004836251
4.99
2.3819e-05
6.521e-08
d
yr
n .1973977488131926 2.5781e-09 deg/d
Q 3.317842380658079 2.8889e-08 AU
  Orbit Determination Parameters
   # obs. used (total)      1151  
   data-arc span      13267 days (36.32 yr)  
   first obs. used      1977-12-07  
   last obs. used      2014-04-04  
   planetary ephem.      DE431  
   SB-pert. ephem.      SB431-BIG16  
   condition code      0  
   fit RMS      .53958  
   data source      ORB  
   producer      Otto Matic  
   solution date      2014-Apr-17 13:49:22  

Additional Information
 Earth MOID = 1.52979 AU 
 T_jup = 3.264 
[ show covariance matrix ]

Ephemeris | Orbit Diagram | Orbital Elements | Physical Parameters | Discovery Circumstances ]

Physical Parameter Table
Parameter Symbol Value Units Sigma Reference Notes
absolute magnitude H 12.9 mag n/a MPO259381  

5898 (1985 KE)          Discovered 1985-May-23 by Gilmore and Kilmartin at Lake Tekapo
Reference: DISCOVERY.DBLast Updated: 2003-08-29

Alternate Designations
 1985 KE = 1977 XT = 1992 WV5 
Ephemeris | Orbit Diagram | Orbital Elements | Physical Parameters | Discovery Circumstances ]
ABOUT SSD CREDITS/AWARDS PRIVACY/COPYRIGHT GLOSSARY LINKS
FirstGov 2014-Apr-24 22:36 UT
(server date/time)  
NASA Home Page
Site Manager:   Donald K. Yeomans
Webmaster  Alan B. Chamberlin